CAPE
nan nan nan nan nan nan nan nan nan nan nan nan nan nan nan nan nan nan nan nan nan nan nan nan nan nan nan nan nan nan nan nan nan nan 0 0 0 0 1 2 2 3 4 6 6 7 8 8 8 7 9 8 10 10 12 13 13 15 19 19 19 22 22 22 22 24 23 22 21 21 16 10 6 6 4 4 6 6 8 12 12 16 20 35 35 62
nan nan nan nan nan nan nan nan nan nan nan nan nan nan nan nan nan nan nan nan nan nan nan nan nan nan nan nan nan nan nan nan nan nan 0 1 1 1 2 3 3 4 5 7 7 8 9 9 9 8 8 8 8 8 9 11 11 14 14 16 16 16 17 19 19 22 23 27 25 25 20 12 7 7 5 6 9 9 13 20 20 24 29 47 47 73
nan nan nan nan nan nan nan nan nan nan nan nan nan nan nan nan nan nan nan nan nan nan nan nan nan nan nan nan nan nan nan nan nan nan 0 1 2 2 3 5 5 5 6 7 7 9 9 10 10 10 8 7 8 8 8 12 12 13 14 14 14 12 11 12 12 15 18 21 22 22 18 12 8 8 10 14 16 16 22 26 26 25 38 60 60 88
nan nan nan nan nan nan nan nan nan nan nan nan nan nan nan nan nan nan nan nan nan nan nan nan nan nan nan nan nan nan nan nan nan nan 0 1 3 3 4 5 5 5 7 7 7 8 9 8 8 7 8 8 7 7 8 10 10 11 12 13 13 14 12 10 10 9 10 12 11 11 11 14 16 16 19 20 23 23 24 25 25 23 28 58 58 74
nan nan nan nan nan nan nan nan nan nan nan nan nan nan nan nan nan nan nan nan nan nan nan nan nan nan nan nan nan nan nan nan 0 0 1 2 3 3 4 4 4 5 5 6 6 6 7 7 7 8 8 8 8 8 9 10 10 11 11 12 12 14 15 14 14 13 10 10 8 8 11 13 18 18 23 27 31 31 32 31 31 30 38 47 47 51
nan nan nan nan nan nan nan nan nan nan nan nan nan nan nan nan nan nan nan nan nan nan nan nan nan nan nan nan nan nan 0 0 0 0 1 1 2 2 3 3 3 3 5 5 5 5 6 7 7 8 9 9 9 9 10 12 12 12 12 11 11 13 16 16 16 17 16 13 10 10 11 11 13 13 17 24 32 32 37 38 38 38 39 41 41 47
nan nan nan nan nan nan nan nan nan nan nan nan nan nan nan nan nan nan nan nan nan nan nan nan nan nan nan nan nan nan 0 0 0 0 0 1 1 1 2 2 2 3 4 5 5 5 7 9 9 9 10 10 10 10 12 12 12 13 12 12 12 13 16 18 18 19 18 15 13 13 10 9 10 10 13 18 26 26 34 40 40 45 45 48 48 54
nan nan nan nan nan nan nan nan nan nan nan nan nan nan nan nan nan nan nan nan nan nan nan nan nan nan nan nan nan nan nan nan nan nan nan nan 0 0 1 3 3 4 5 6 6 8 9 10 10 10 11 10 10 10 11 10 10 10 11 11 11 13 15 17 17 19 19 19 17 17 16 17 17 17 17 19 21 21 26 35 35 44 49 54 54 59
nan nan nan nan nan nan nan nan nan nan nan nan nan nan nan nan nan nan nan nan nan nan nan nan nan nan nan nan nan nan nan nan nan nan nan nan nan nan nan 2 2 4 5 6 6 7 8 8 8 9 10 10 9 9 9 8 8 7 8 9 9 12 14 16 16 19 21 21 23 23 23 25 25 25 24 23 23 23 23 29 29 38 46 52 52 58
nan nan nan nan nan nan nan nan nan nan nan nan nan nan nan nan nan nan nan nan nan nan nan nan nan nan nan nan nan nan nan nan 3 3 6 1 6 6 1 0 0 0 5 5 5 6 5 5 5 7 8 9 9 9 8 7 7 8 8 10 10 12 13 16 16 20 23 26 26 26 29 29 29 29 26 24 22 22 21 23 23 29 35 43 43 49
nan nan nan nan nan nan nan nan nan nan nan nan nan nan nan nan nan nan nan nan nan nan nan nan nan nan nan nan nan nan nan nan nan nan 0 2 3 3 3 1 1 2 4 4 4 3 3 3 3 5 6 7 7 7 7 7 7 9 11 13 13 15 17 19 19 22 25 28 31 31 32 33 31 31 28 25 23 23 22 20 20 17 21 30 30 41
nan nan nan nan nan nan nan nan nan nan nan nan nan nan nan nan nan nan nan nan nan nan nan nan nan nan nan nan nan nan nan nan nan nan nan nan nan nan nan nan nan nan nan 0 0 0 1 3 3 4 4 3 6 6 6 7 7 12 16 17 17 19 22 25 25 27 28 29 31 31 32 32 34 34 31 29 26 26 25 21 21 19 18 22 22 30
nan nan nan nan nan nan nan nan nan nan nan nan nan nan nan nan nan nan nan nan nan nan nan nan nan nan nan nan nan nan nan nan nan nan nan nan nan nan nan nan nan nan nan nan nan nan nan 2 2 3 3 2 6 6 9 10 10 14 19 21 21 23 25 26 26 29 28 30 32 32 31 32 33 33 33 33 34 34 30 28 28 26 23 26 26 31
nan nan nan nan nan nan nan nan nan nan nan nan nan nan nan nan nan nan nan nan nan nan nan nan nan nan nan nan nan nan nan nan nan nan nan nan nan nan nan nan nan nan nan nan nan nan nan nan nan nan 1 1 3 3 8 12 12 16 20 24 24 26 28 30 30 31 30 31 31 31 33 32 33 33 34 37 38 38 36 35 35 33 34 34 34 36
nan nan nan nan nan nan nan nan nan nan nan nan nan nan nan nan nan nan nan nan nan nan nan nan nan nan nan nan nan nan nan nan nan nan nan nan nan nan nan nan nan nan nan nan nan nan nan nan nan nan nan nan nan nan 4 7 7 17 18 24 24 27 29 30 30 33 33 32 34 34 34 33 36 36 39 38 37 37 36 36 36 36 40 40 40 44
nan nan nan nan nan nan nan nan nan nan nan nan nan nan nan nan nan nan nan nan nan nan nan nan nan nan nan nan nan nan nan nan nan nan nan nan nan nan nan nan nan nan nan nan nan nan nan nan nan nan nan nan 4 4 6 9 9 14 16 21 21 24 27 28 28 29 31 31 32 32 33 33 32 32 34 35 35 35 34 37 37 38 39 45 45 50
nan nan nan nan nan nan nan nan nan nan nan nan nan nan nan nan nan nan nan nan nan nan nan nan nan nan nan nan nan nan nan nan nan nan nan nan nan nan nan nan nan nan nan nan nan nan nan nan nan nan nan 0 4 4 4 7 7 11 13 18 18 22 24 26 26 28 29 29 30 30 31 32 31 31 30 31 31 31 33 35 35 36 41 47 47 57
nan nan nan nan nan nan nan nan nan nan nan nan nan nan nan nan nan nan 0 nan nan nan nan nan nan nan nan nan nan nan nan nan nan nan nan nan nan nan nan nan nan nan nan nan nan nan nan nan nan nan nan 1 2 2 3 5 5 8 11 15 15 17 20 24 24 25 27 28 28 28 29 29 30 30 31 31 34 34 36 37 37 38 41 45 45 53
nan nan nan nan nan nan nan nan nan nan nan nan nan nan nan 0 0 0 0 nan nan nan nan nan nan nan nan nan nan nan nan nan nan nan nan nan nan nan nan nan nan nan nan nan nan nan nan nan nan nan 0 1 2 2 3 5 5 8 10 13 13 15 17 21 21 24 27 28 29 29 31 30 31 31 31 31 34 34 38 40 40 43 40 42 42 49
nan nan nan nan nan nan nan nan nan nan nan nan 1 1 0 1 1 1 nan nan nan nan nan nan nan nan nan nan nan nan nan nan nan nan nan nan nan nan nan nan nan nan nan nan nan nan nan nan nan nan nan 1 3 3 4 6 6 8 10 12 12 15 17 19 19 23 27 30 30 30 32 32 32 32 33 33 37 37 41 41 41 45 47 47 47 44
nan nan nan nan nan nan nan nan nan nan 0 2 1 1 2 0 nan nan nan nan nan nan nan nan nan nan nan nan nan nan nan nan nan nan nan nan nan nan nan nan nan nan nan nan nan nan nan nan nan nan nan 1 3 3 5 6 6 9 10 12 12 14 15 18 18 20 26 28 29 29 30 30 31 31 32 35 38 38 41 48 48 49 51 50 50 49
0 nan nan nan nan 0 1 nan nan nan 1 5 2 2 1 0 nan nan 0 nan nan nan nan nan nan nan nan nan nan nan nan nan nan nan nan nan nan nan nan nan nan nan nan nan nan nan nan nan nan nan nan 3 4 4 5 6 6 7 8 11 11 13 14 15 15 18 22 25 29 29 31 29 30 30 30 33 37 37 44 50 50 53 51 48 48 46
2 1 0 0 0 0 1 0 1 1 3 3 2 2 0 0 1 1 0 nan nan nan nan nan nan nan nan nan nan nan nan nan nan nan nan nan nan nan nan nan nan nan nan nan nan nan nan nan nan nan nan 4 4 4 5 6 6 7 9 10 10 12 14 15 15 17 18 21 23 23 26 28 26 26 27 30 33 33 40 45 45 52 51 45 45 42
nan nan nan 0 0 nan nan 0 0 0 1 2 1 1 0 1 1 1 1 1 1 0 1 1 1 0 0 nan nan nan nan nan nan nan nan nan nan nan nan nan nan nan nan nan nan nan nan nan nan nan nan 3 4 4 5 6 6 7 8 10 10 12 12 13 13 14 15 16 19 19 21 22 24 24 25 25 26 26 28 32 32 37 38 38 38 37
nan nan 0 nan nan 1 0 0 2 2 1 0 0 0 0 4 6 6 3 2 2 2 2 1 1 0 nan nan nan nan nan nan nan nan nan nan nan nan nan nan nan nan nan nan nan nan nan nan nan nan nan nan 4 4 4 5 5 7 9 10 10 10 10 10 10 11 12 13 14 14 17 17 19 19 20 22 23 23 26 26 26 28 29 30 30 29
3 3 2 4 4 12 16 18 16 16 12 4 3 3 4 4 3 3 2 2 2 2 1 0 0 nan nan nan nan nan nan nan nan nan nan nan nan nan nan nan nan nan nan nan nan nan nan nan nan nan nan nan 2 2 5 6 6 7 9 8 8 8 6 6 6 7 8 10 11 11 13 14 15 15 17 19 19 19 21 23 23 24 25 25 25 25
16 16 19 20 20 18 18 18 19 19 23 20 6 6 4 3 3 3 1 1 1 1 0 0 0 nan nan nan nan nan nan nan nan nan nan nan nan nan nan nan nan nan nan nan nan nan nan nan nan nan nan nan nan nan 5 5 5 6 6 6 6 4 3 4 4 5 6 7 9 9 10 12 13 13 15 15 17 17 19 20 20 22 22 22 22 23
12 12 10 10 10 9 9 11 14 14 17 20 23 23 12 3 1 1 1 0 0 1 1 nan nan nan 0 nan nan nan nan nan nan nan nan nan nan nan nan nan nan nan nan nan nan nan nan nan nan nan nan nan nan nan 1 5 5 5 4 3 3 2 2 2 2 4 5 7 8 8 10 12 13 13 13 15 15 15 17 19 19 21 24 16 16 3
4 3 2 3 3 4 5 7 9 9 11 14 16 16 8 1 1 1 0 0 0 2 1 0 0 0 0 0 nan nan nan nan nan nan nan nan nan nan nan nan nan nan nan nan nan nan nan nan nan nan nan nan nan nan nan 2 2 1 1 1 1 1 1 2 2 3 5 6 8 8 9 12 12 12 13 15 16 16 17 17 17 21 18 7 7 1
nan nan nan 0 0 1 1 0 2 2 7 10 13 13 8 1 0 0 1 2 2 2 2 2 2 1 nan nan nan nan nan nan nan nan nan nan nan nan nan nan nan nan nan nan nan nan nan nan nan nan nan nan nan nan nan nan nan nan nan 0 0 0 1 1 1 3 4 5 7 7 9 11 12 12 12 14 15 15 17 18 18 16 4 0 0 0
nan nan nan nan nan nan nan nan nan nan 4 7 8 8 5 1 0 0 1 1 1 1 1 1 1 1 1 nan nan nan nan nan nan nan nan nan nan nan nan nan nan 0 nan nan nan nan nan nan nan nan nan nan nan nan nan nan nan nan nan nan nan nan 0 1 1 3 4 5 5 5 7 9 10 10 12 14 15 15 16 18 18 16 1 0 0 0
nan nan nan nan nan nan nan nan nan nan nan nan nan nan 1 1 0 0 0 0 0 0 1 1 1 0 1 2 1 1 nan nan nan nan 1 nan nan nan 0 nan nan nan 0 1 1 nan nan nan nan nan nan nan nan nan nan nan nan nan nan nan nan nan nan 1 1 1 0 3 6 6 7 7 10 10 11 12 15 15 18 21 21 20 7 2 2 3
nan nan nan nan nan nan nan nan nan nan nan nan nan nan nan 0 1 1 0 0 0 0 0 0 0 1 0 0 0 0 nan nan 0 0 5 nan nan nan nan nan nan nan nan nan nan nan nan nan nan nan nan nan nan nan nan nan nan nan nan nan nan nan nan nan nan nan nan 0 1 1 6 6 9 9 11 12 15 15 18 20 20 23 21 4 4 5
nan nan nan nan nan nan nan nan nan nan nan nan nan nan nan nan 0 0 1 0 0 0 0 0 0 1 0 0 0 0 nan nan 1 1 4 nan nan nan nan nan nan nan nan nan nan nan nan nan nan nan nan nan nan nan nan nan nan nan nan nan nan nan nan nan nan nan nan nan nan nan nan nan 5 5 6 10 12 12 16 22 22 26 27 15 15 9
nan nan nan nan nan nan nan nan nan nan nan nan nan nan nan 0 nan nan 0 1 1 1 1 1 1 1 1 0 0 0 nan nan 1 1 6 1 0 0 nan nan nan nan nan nan nan nan nan nan nan nan nan nan nan nan nan nan nan nan nan nan nan nan nan nan nan nan nan nan nan nan nan nan nan nan nan 6 13 13 19 24 24 28 31 34 34 24
nan nan nan nan nan nan nan nan nan nan nan nan nan nan nan nan nan nan nan 0 0 2 3 3 3 2 2 0 nan nan nan nan 1 1 6 1 nan nan nan nan nan nan nan nan nan nan nan nan nan 1 1 nan nan nan nan nan nan nan nan nan nan nan nan nan nan nan nan nan nan nan nan nan nan nan nan 9 18 18 20 24 24 27 28 30 30 30
nan nan nan nan nan nan nan nan nan nan nan nan nan nan nan nan nan nan nan nan nan 0 2 4 4 4 6 1 0 0 nan nan nan nan 2 0 0 0 nan nan nan 1 nan nan nan nan nan nan nan nan nan nan nan nan nan nan nan nan nan nan nan nan nan nan nan nan nan nan nan nan nan nan nan nan 0 11 10 10 16 20 20 19 24 25 25 27
0 0 nan nan nan nan nan nan nan nan nan nan nan nan nan nan nan nan nan nan nan nan 0 0 0 nan 5 8 1 1 0 nan nan nan nan 0 0 0 0 nan nan 0 0 nan nan nan nan nan nan nan nan nan nan nan nan nan nan nan nan nan nan nan nan nan nan nan nan nan nan nan nan nan nan nan nan nan nan nan nan nan nan 6 18 18 18 25
0 0 0 nan nan 0 0 nan nan nan nan nan nan nan nan nan nan nan nan nan nan nan nan nan nan nan nan nan 3 3 3 nan nan nan nan nan 0 0 0 0 0 nan nan nan nan nan nan nan nan nan nan nan nan nan nan nan nan nan nan nan nan nan nan nan nan nan nan nan nan nan nan nan nan nan nan nan nan nan nan nan nan 1 3 1 1 9
1 0 0 1 1 0 0 0 nan nan nan nan 0 0 0 nan nan nan nan nan nan nan nan nan nan nan nan 1 1 1 1 nan nan nan nan nan nan nan 0 0 0 0 0 nan nan nan nan nan nan nan nan nan nan nan nan nan nan nan nan nan nan nan nan nan nan nan nan nan nan nan nan nan nan nan nan nan nan nan nan nan nan nan 0 nan nan nan
1 1 0 0 0 1 1 1 0 0 0 0 nan nan 0 0 nan nan nan nan nan nan nan nan nan nan nan nan nan nan nan nan nan nan nan nan nan nan nan 0 0 0 nan nan nan nan nan nan nan nan nan nan nan nan nan nan nan 1 4 nan nan nan nan nan nan nan nan nan nan nan nan nan nan nan nan nan nan nan nan nan nan nan 0 nan nan nan
4 2 0 0 0 0 0 1 2 2 2 0 0 0 0 0 nan nan nan nan nan nan nan nan nan nan nan nan nan nan nan nan nan nan nan nan nan nan nan nan nan nan 0 nan nan 0 0 0 0 nan nan nan nan nan nan nan nan 0 1 nan nan nan 0 nan nan nan nan nan nan nan 0 nan nan nan nan nan nan nan nan nan nan 1 2 nan nan nan
2 1 1 1 1 1 2 3 3 3 1 0 0 0 nan nan nan nan 0 0 0 0 nan nan nan nan nan nan nan nan nan nan nan nan nan nan nan nan nan nan nan 0 0 nan nan 0 0 1 1 nan nan nan nan nan nan nan nan nan nan nan nan nan nan nan nan nan nan nan nan nan nan nan nan nan nan nan nan nan nan 0 0 9 7 nan nan nan
1 1 1 1 1 1 2 2 1 1 0 0 0 0 nan nan 1 1 1 nan nan 0 nan nan nan nan nan nan nan nan nan nan nan nan nan nan nan nan nan nan nan nan nan nan nan nan 0 1 1 0 nan nan nan nan nan nan nan nan nan nan nan nan nan nan nan nan nan nan nan nan nan nan nan nan nan nan nan nan nan nan nan nan 2 nan nan nan
0 1 1 2 2 2 1 1 0 0 0 0 0 0 nan nan 2 2 0 nan nan nan nan 0 0 0 nan nan nan nan nan nan nan nan nan nan 8 8 1 nan nan nan nan nan nan nan nan nan nan nan nan nan nan nan nan nan nan nan nan nan nan nan nan nan nan nan nan nan nan nan nan nan nan nan nan nan nan nan nan nan nan nan nan nan nan nan
1 1 1 2 2 0 1 0 0 0 0 0 nan nan nan nan nan nan 0 nan nan nan nan 0 0 nan nan 0 0 0 nan nan nan nan nan nan nan nan nan nan nan nan nan nan nan nan nan nan nan nan nan nan nan nan nan nan nan nan nan nan nan nan nan nan nan nan nan nan nan nan nan nan nan nan nan nan nan nan nan nan nan nan nan nan nan nan
nan 0 0 0 0 0 nan nan 0 0 0 0 nan nan nan nan nan nan nan nan nan nan nan nan nan nan nan nan nan nan nan nan nan nan nan nan nan nan nan nan nan 1 nan nan nan nan nan nan nan nan nan nan nan nan nan nan nan nan nan nan nan nan nan nan nan nan nan nan nan nan nan nan nan nan nan nan nan nan nan nan nan nan nan nan nan nan
1 0 nan 0 0 nan nan nan nan nan nan nan nan nan nan nan nan nan nan nan nan nan 0 nan nan nan nan nan nan nan nan nan nan nan nan nan nan nan nan nan nan 0 1 2 2 4 0 nan nan nan nan nan nan nan nan nan nan nan nan nan nan nan nan nan nan nan nan nan nan nan nan nan nan nan nan nan nan nan nan nan nan nan nan nan nan nan
0 nan nan nan nan nan nan nan nan nan nan nan nan nan nan 0 11 11 nan nan nan nan nan nan nan nan nan nan nan nan 1 1 nan nan nan nan nan nan nan 0 0 0 0 1 1 1 1 1 1 nan nan nan nan nan nan nan nan nan nan nan nan nan nan nan nan nan nan nan nan nan nan nan nan nan nan nan nan nan nan nan nan nan nan nan nan nan
0 nan nan nan nan nan nan nan nan nan nan nan nan nan nan nan nan nan nan nan nan nan nan nan nan nan nan nan nan nan nan nan nan nan nan nan nan nan 0 0 0 0 0 0 0 0 nan 0 0 2 7 1 nan nan nan nan nan nan nan nan nan nan nan nan nan nan nan nan nan nan nan nan nan nan nan nan nan nan nan nan nan nan nan nan nan nan
0 nan nan nan nan nan nan nan nan nan nan nan nan nan nan nan nan nan nan nan nan nan nan nan nan nan nan nan nan nan nan nan nan nan nan nan nan nan 0 0 0 1 1 nan nan nan nan nan nan nan 4 19 3 3 nan nan nan nan nan nan nan nan nan nan nan nan nan nan nan nan nan nan nan nan nan nan nan nan nan nan nan nan nan nan nan nan
CIN
nan nan nan nan nan nan nan nan nan nan nan nan nan nan nan nan nan nan nan nan nan nan nan nan nan nan nan nan nan nan nan nan nan nan -0 -0 -0 -0 -0 -0 -0 -0 -0 -0 -0 -0 -0 -0 -0 -0 -0 -0 -0 -0 -0 -0 -0 -0 -0 -0 -0 -0 -0 -0 -0 -0 -0 -0 -0 -0 -0 -0 -0 -0 -0 -0 -0 -0 -0 -0 -0 -0 -0 -0 -0 -0
nan nan nan nan nan nan nan nan nan nan nan nan nan nan nan nan nan nan nan nan nan nan nan nan nan nan nan nan nan nan nan nan nan nan -0 -0 -0 -0 -0 -0 -0 -0 -0 -0 -0 -0 -0 -0 -0 -0 -0 -0 -0 -0 -0 -0 -0 -0 -0 -0 -0 -0 -0 -0 -0 -0 -0 -0 -0 -0 -0 -0 -0 -0 -0 -0 -0 -0 -0 -0 -0 -0 -0 -0 -0 -0
nan nan nan nan nan nan nan nan nan nan nan nan nan nan nan nan nan nan nan nan nan nan nan nan nan nan nan nan nan nan nan nan nan nan -0 -0 -0 -0 -0 -0 -0 -0 -0 -0 -0 -0 -0 -0 -0 -0 -0 -0 -0 -0 -0 -0 -0 -0 -0 -0 -0 -0 -0 -0 -0 -0 -0 -0 -0 -0 -0 -0 -0 -0 -0 -0 -0 -0 -0 -0 -0 -0 -0 -0 -0 -0
nan nan nan nan nan nan nan nan nan nan nan nan nan nan nan nan nan nan nan nan nan nan nan nan nan nan nan nan nan nan nan nan nan nan -0 -0 -0 -0 -0 -0 -0 -0 -0 -0 -0 -0 -0 -0 -0 -0 -0 -0 -0 -0 -0 -0 -0 -0 -0 -0 -0 -0 -0 -0 -0 -0 -0 -0 -0 -0 -0 -0 -0 -0 -0 -0 -0 -0 -0 -0 -0 -0 -0 -0 -0 -0
nan nan nan nan nan nan nan nan nan nan nan nan nan nan nan nan nan nan nan nan nan nan nan nan nan nan nan nan nan nan nan nan -0 -0 -0 -0 -0 -0 -0 -0 -0 -0 -0 -0 -0 -0 -0 -0 -0 -0 -0 -0 -0 -0 -0 -0 -0 -0 -0 -0 -0 -0 -0 -0 -0 -0 -0 -0 -0 -0 -0 -0 -0 -0 -0 -0 -0 -0 -0 -0 -0 -0 -0 -0 -0 -0
nan nan nan nan nan nan nan nan nan nan nan nan nan nan nan nan nan nan nan nan nan nan nan nan nan nan nan nan nan nan -0 -0 -0 -0 -0 -0 -0 -0 -0 -0 -0 -0 -0 -0 -0 -0 -0 -0 -0 -0 -0 -0 -0 -0 -0 -0 -0 -0 -0 -0 -0 -0 -0 -0 -0 -0 -0 -0 -0 -0 -0 -0 -0 -0 -0 -0 -0 -0 -0 -0 -0 -0 -0 -0 -0 -0
nan nan nan nan nan nan nan nan nan nan nan nan nan nan nan nan nan nan nan nan nan nan nan nan nan nan nan nan nan nan -0 -0 -0 -0 -0 -0 -0 -0 -0 -0 -0 -0 -0 -0 -0 -0 -0 -0 -0 -0 -0 -0 -0 -0 -0 -0 -0 -0 -0 -0 -0 -0 -0 -0 -0 -0 -0 -0 -0 -0 -0 -0 -0 -0 -0 -0 -0 -0 -0 -0 -0 -0 -0 -0 -0 -0
nan nan nan nan nan nan nan nan nan nan nan nan nan nan nan nan nan nan nan nan nan nan nan nan nan nan nan nan nan nan nan nan nan nan nan nan -0 -0 -0 -0 -0 -0 -0 -0 -0 -0 -0 -0 -0 -0 -0 -0 -0 -0 -0 -0 -0 -0 -0 -0 -0 -0 -0 -0 -0 -0 -0 -0 -0 -0 -0 -0 -0 -0 -0 -0 -0 -0 -0 -0 -0 -0 -0 -0 -0 -0
nan nan nan nan nan nan nan nan nan nan nan nan nan nan nan nan nan nan nan nan nan nan nan nan nan nan nan nan nan nan nan nan nan nan nan nan nan nan nan -0 -0 -0 -0 -0 -0 -0 -0 -0 -0 -0 -0 -0 -0 -0 -0 -0 -0 -0 -0 -0 -0 -0 -0 -0 -0 -0 -0 -0 -0 -0 -0 -0 -0 -0 -0 -0 -0 -0 -0 -0 -0 -0 -0 -0 -0 -0
nan nan nan nan nan nan nan nan nan nan nan nan nan nan nan nan nan nan nan nan nan nan nan nan nan nan nan nan nan nan nan nan -0 -0 -0 -1 -0 -0 -2 -0 -0 -1 -0 -0 -0 -0 -0 -0 -0 -0 -0 -0 -0 -0 -0 -0 -0 -0 -0 -0 -0 -0 -0 -0 -0 -0 -0 -0 -0 -0 -0 -0 -0 -0 -0 -0 -0 -0 -0 -0 -0 -0 -0 -0 -0 -0
nan nan nan nan nan nan nan nan nan nan nan nan nan nan nan nan nan nan nan nan nan nan nan nan nan nan nan nan nan nan nan nan nan nan -11 -8 -0 -0 -0 -0 -0 -0 -0 -0 -0 -0 -0 -0 -0 -0 -0 -0 -0 -0 -0 -0 -0 -0 -0 -0 -0 -0 -0 -0 -0 -0 -0 -0 -0 -0 -0 -0 -0 -0 -0 -0 -0 -0 -0 -0 -0 -0 -0 -0 -0 -0
nan nan nan nan nan nan nan nan nan nan nan nan nan nan nan nan nan nan nan nan nan nan nan nan nan nan nan nan nan nan nan nan nan nan nan nan nan nan nan nan nan nan nan -0 -0 -0 -0 -0 -0 -0 -0 -0 -0 -0 -0 -0 -0 -0 -0 -0 -0 -0 -0 -0 -0 -0 -0 -0 -0 -0 -0 -0 -0 -0 -0 -0 -0 -0 -0 -0 -0 -0 -0 -0 -0 -0
nan nan nan nan nan nan nan nan nan nan nan nan nan nan nan nan nan nan nan nan nan nan nan nan nan nan nan nan nan nan nan nan nan nan nan nan nan nan nan nan nan nan nan nan nan nan nan -0 -0 -0 -0 -0 -0 -0 -0 -0 -0 -0 -0 -0 -0 -0 -0 -0 -0 -0 -0 -0 -0 -0 -0 -0 -0 -0 -0 -0 -0 -0 -0 -0 -0 -0 -0 -0 -0 -0
nan nan nan nan nan nan nan nan nan nan nan nan nan nan nan nan nan nan nan nan nan nan nan nan nan nan nan nan nan nan nan nan nan nan nan nan nan nan nan nan nan nan nan nan nan nan nan nan nan nan -0 -0 -1 -1 -0 -0 -0 -0 -0 -0 -0 -0 -0 -0 -0 -0 -0 -0 -0 -0 -0 -0 -0 -0 -0 -0 -0 -0 -0 -0 -0 -0 -0 -0 -0 -0
nan nan nan nan nan nan nan nan nan nan nan nan nan nan nan nan nan nan nan nan nan nan nan nan nan nan nan nan nan nan nan nan nan nan nan nan nan nan nan nan nan nan nan nan nan nan nan nan nan nan nan nan nan nan -7 -0 -0 -0 -0 -0 -0 -0 -0 -0 -0 -0 -0 -0 -0 -0 -0 -0 -0 -0 -0 -0 -0 -0 -0 -0 -0 -0 -0 -0 -0 -0
nan nan nan nan nan nan nan nan nan nan nan nan nan nan nan nan nan nan nan nan nan nan nan nan nan nan nan nan nan nan nan nan nan nan nan nan nan nan nan nan nan nan nan nan nan nan nan nan nan nan nan nan -0 -0 -0 -0 -0 -0 -0 -0 -0 -0 -0 -0 -0 -0 -0 -0 -0 -0 -0 -0 -0 -0 -0 -0 -0 -0 -0 -0 -0 -0 -0 -0 -0 -0
nan nan nan nan nan nan nan nan nan nan nan nan nan nan nan nan nan nan nan nan nan nan nan nan nan nan nan nan nan nan nan nan nan nan nan nan nan nan nan nan nan nan nan nan nan nan nan nan nan nan nan -2 -0 -0 -0 -0 -0 -0 -0 -0 -0 -0 -0 -0 -0 -0 -0 -0 -0 -0 -0 -0 -0 -0 -0 -0 -0 -0 -0 -0 -0 -0 -0 -0 -0 -0
nan nan nan nan nan nan nan nan nan nan nan nan nan nan nan nan nan nan -2 nan nan nan nan nan nan nan nan nan nan nan nan nan nan nan nan nan nan nan nan nan nan nan nan nan nan nan nan nan nan nan nan -0 -0 -0 -0 -0 -0 -0 -0 -0 -0 -0 -0 -0 -0 -0 -0 -0 -0 -0 -0 -0 -0 -0 -0 -0 -0 -0 -0 -0 -0 -0 -0 -0 -0 -0
nan nan nan nan nan nan nan nan nan nan nan nan nan nan nan -4 -2 -2 -2 nan nan nan nan nan nan nan nan nan nan nan nan nan nan nan nan nan nan nan nan nan nan nan nan nan nan nan nan nan nan nan -0 -0 -0 -0 -0 -0 -0 -0 -0 -0 -0 -0 -0 -0 -0 -0 -0 -0 -0 -0 -0 -0 -0 -0 -0 -0 -0 -0 -0 -0 -0 -0 -0 -0 -0 -0
nan nan nan nan nan nan nan nan nan nan nan nan -1 -1 -1 -3 -0 -0 nan nan nan nan nan nan nan nan nan nan nan nan nan nan nan nan nan nan nan nan nan nan nan nan nan nan nan nan nan nan nan nan nan -0 -0 -0 -0 -0 -0 -0 -0 -0 -0 -0 -0 -0 -0 -0 -0 -0 -0 -0 -0 -0 -0 -0 -0 -0 -0 -0 -0 -0 -0 -0 -0 -0 -0 -0
nan nan nan nan nan nan nan nan nan nan -0 -0 -1 -1 -2 -7 nan nan nan nan nan nan nan nan nan nan nan nan nan nan nan nan nan nan nan nan nan nan nan nan nan nan nan nan nan nan nan nan nan nan nan -0 -0 -0 -0 -0 -0 -0 -0 -0 -0 -0 -0 -0 -0 -0 -0 -0 -0 -0 -0 -0 -0 -0 -0 -0 -0 -0 -0 -0 -0 -0 -0 -0 -0 -0
-0 nan nan nan nan -0 -0 nan nan nan -0 -6 -5 -5 -2 -4 nan nan -6 nan nan nan nan nan nan nan nan nan nan nan nan nan nan nan nan nan nan nan nan nan nan nan nan nan nan nan nan nan nan nan nan -0 -0 -0 -0 -0 -0 -0 -0 -0 -0 -0 -0 -0 -0 -0 -0 -0 -0 -0 -0 -0 -0 -0 -0 -0 -0 -0 -0 -0 -0 -0 -0 -0 -0 -0
-0 -0 -0 -0 -0 -0 -0 -0 -1 -1 -0 -6 -2 -2 -5 -4 -1 -1 -3 nan nan nan nan nan nan nan nan nan nan nan nan nan nan nan nan nan nan nan nan nan nan nan nan nan nan nan nan nan nan nan nan -0 -0 -0 -0 -0 -0 -0 -0 -0 -0 -0 -0 -0 -0 -0 -0 -0 -0 -0 -0 -0 -0 -0 -0 -0 -0 -0 -0 -0 -0 -0 -0 -0 -0 -0
nan nan nan -0 -0 nan nan -5 -13 -13 -8 -4 -7 -7 -19 -10 -4 -4 -3 -2 -2 -5 -4 -3 -3 -5 -7 nan nan nan nan nan nan nan nan nan nan nan nan nan nan nan nan nan nan nan nan nan nan nan nan -0 -0 -0 -0 -0 -0 -0 -0 -0 -0 -0 -0 -0 -0 -0 -0 -0 -0 -0 -0 -0 -0 -0 -0 -0 -0 -0 -0 -0 -0 -0 -0 -0 -0 -0
nan nan -0 nan nan -3 -4 -6 -0 -0 -5 -9 -11 -11 -17 -5 -0 -0 -1 -1 -1 -1 -3 -2 -2 -0 nan nan nan nan nan nan nan nan nan nan nan nan nan nan nan nan nan nan nan nan nan nan nan nan nan nan -0 -0 -0 -0 -0 -0 -0 -0 -0 -0 -0 -0 -0 -0 -0 -0 -0 -0 -0 -0 -0 -0 -0 -0 -0 -0 -0 -0 -0 -0 -0 -0 -0 -0
-0 -0 -0 -0 -0 -0 -0 -0 -0 -0 -0 -3 -4 -4 -1 -0 -2 -2 -3 -1 -1 -0 -0 -1 -1 nan nan nan nan nan nan nan nan nan nan nan nan nan nan nan nan nan nan nan nan nan nan nan nan nan nan nan -0 -0 -0 -0 -0 -0 -0 -0 -0 -0 -0 -0 -0 -0 -0 -0 -0 -0 -0 -0 -0 -0 -0 -0 -0 -0 -0 -0 -0 -0 -0 -0 -0 -0
-0 -0 -0 -0 -0 -0 -0 -0 -0 -0 -0 -0 -0 -0 -1 -1 -1 -1 -0 -0 -0 -0 -0 -2 -2 nan nan nan nan nan nan nan nan nan nan nan nan nan nan nan nan nan nan nan nan nan nan nan nan nan nan nan nan nan -0 -0 -0 -0 -0 -0 -0 -0 -0 -0 -0 -0 -0 -0 -0 -0 -0 -0 -0 -0 -0 -0 -0 -0 -0 -0 -0 -0 -0 -0 -0 -0
-0 -0 -0 -0 -0 -0 -0 -0 -0 -0 -0 -0 -0 -0 -0 -0 -0 -0 -0 -0 -0 -0 -0 nan nan nan -1 nan nan nan nan nan nan nan nan nan nan nan nan nan nan nan nan nan nan nan nan nan nan nan nan nan nan nan -0 -0 -0 -0 -0 -0 -0 -0 -0 -0 -0 -0 -0 -0 -0 -0 -0 -0 -0 -0 -0 -0 -0 -0 -0 -0 -0 -0 -0 -0 -0 -14
-0 -0 -0 -0 -0 -0 -0 -0 -0 -0 -0 -0 -0 -0 -0 -0 -0 -0 -0 -0 -0 -0 -0 -0 -0 -0 -0 -0 nan nan nan nan nan nan nan nan nan nan nan nan nan nan nan nan nan nan nan nan nan nan nan nan nan nan nan -0 -0 -0 -0 -0 -0 -0 -0 -0 -0 -0 -0 -0 -0 -0 -0 -0 -0 -0 -0 -0 -0 -0 -0 -0 -0 -0 -0 -7 -7 -18
nan nan nan -0 -0 -0 -0 -0 -0 -0 -0 -0 -0 -0 -0 -0 -0 -0 -0 -0 -0 -0 -0 -0 -0 -0 nan nan nan nan nan nan nan nan nan nan nan nan nan nan nan nan nan nan nan nan nan nan nan nan nan nan nan nan nan nan nan nan nan -0 -0 -0 -0 -0 -0 -0 -0 -0 -0 -0 -0 -0 -0 -0 -0 -0 -0 -0 -0 -0 -0 -0 -15 -25 -25 -21
nan nan nan nan nan nan nan nan nan nan -0 -0 -0 -0 -0 -2 -1 -1 -0 -0 -0 -0 -0 -0 -0 -0 -0 nan nan nan nan nan nan nan nan nan nan nan nan nan nan -9 nan nan nan nan nan nan nan nan nan nan nan nan nan nan nan nan nan nan nan nan -0 -0 -0 -0 -0 -0 -0 -0 -0 -0 -0 -0 -0 -0 -0 -0 -0 -0 -0 -0 -20 -25 -25 -21
nan nan nan nan nan nan nan nan nan nan nan nan nan nan -0 -2 -6 -6 -6 -2 -2 -2 -1 -1 -1 -1 -1 -0 -0 -0 nan nan nan nan -2 nan nan nan -8 nan nan nan -8 -9 -9 nan nan nan nan nan nan nan nan nan nan nan nan nan nan nan nan nan nan -0 -0 -0 -0 -0 -0 -0 -0 -0 -0 -0 -0 -0 -0 -0 -0 -0 -0 -0 -10 -18 -18 -14
nan nan nan nan nan nan nan nan nan nan nan nan nan nan nan -4 -0 -0 -5 -9 -9 -7 -3 -1 -1 -0 -1 -2 -2 -2 nan nan -0 -0 -0 nan nan nan nan nan nan nan nan nan nan nan nan nan nan nan nan nan nan nan nan nan nan nan nan nan nan nan nan nan nan nan nan -0 -0 -0 -0 -0 -0 -0 -0 -0 -0 -0 -0 -0 -0 -0 -0 -15 -15 -13
nan nan nan nan nan nan nan nan nan nan nan nan nan nan nan nan -5 -5 -2 -8 -8 -9 -8 -2 -2 -2 -1 -0 -1 -1 nan nan -0 -0 -0 nan nan nan nan nan nan nan nan nan nan nan nan nan nan nan nan nan nan nan nan nan nan nan nan nan nan nan nan nan nan nan nan nan nan nan nan nan -0 -0 -0 -0 -0 -0 -0 -0 -0 -0 -0 -0 -0 -8
nan nan nan nan nan nan nan nan nan nan nan nan nan nan nan -2 nan nan -8 -7 -7 -8 -9 -7 -7 -5 -1 -2 -1 -1 nan nan -0 -0 -0 -3 -5 -5 nan nan nan nan nan nan nan nan nan nan nan nan nan nan nan nan nan nan nan nan nan nan nan nan nan nan nan nan nan nan nan nan nan nan nan nan nan -0 -0 -0 -0 -0 -0 -0 -0 -0 -0 -0
nan nan nan nan nan nan nan nan nan nan nan nan nan nan nan nan nan nan nan -13 -13 -3 -1 -6 -6 -7 -7 -5 nan nan nan nan -0 -0 -0 -6 nan nan nan nan nan nan nan nan nan nan nan nan nan -0 -0 nan nan nan nan nan nan nan nan nan nan nan nan nan nan nan nan nan nan nan nan nan nan nan nan -0 -0 -0 -0 -0 -0 -0 -0 -0 -0 -0
nan nan nan nan nan nan nan nan nan nan nan nan nan nan nan nan nan nan nan nan nan -16 -4 -0 -0 -3 -1 -12 -8 -8 nan nan nan nan -0 -12 -10 -10 nan nan nan -2 nan nan nan nan nan nan nan nan nan nan nan nan nan nan nan nan nan nan nan nan nan nan nan nan nan nan nan nan nan nan nan nan -14 -0 -0 -0 -0 -0 -0 -0 -0 -0 -0 -0
-4 -4 nan nan nan nan nan nan nan nan nan nan nan nan nan nan nan nan nan nan nan nan -10 -9 -9 nan -0 -0 -9 -9 -12 nan nan nan nan -17 -11 -11 -6 nan nan -3 -6 nan nan nan nan nan nan nan nan nan nan nan nan nan nan nan nan nan nan nan nan nan nan nan nan nan nan nan nan nan nan nan nan nan nan nan nan nan nan -0 -0 -0 -0 -0
-2 -3 -1 nan nan -0 -0 nan nan nan nan nan nan nan nan nan nan nan nan nan nan nan nan nan nan nan nan nan -7 -7 -6 nan nan nan nan nan -14 -14 -7 -5 -5 nan nan nan nan nan nan nan nan nan nan nan nan nan nan nan nan nan nan nan nan nan nan nan nan nan nan nan nan nan nan nan nan nan nan nan nan nan nan nan nan -10 -9 -17 -17 -0
-0 -0 -0 -0 -0 -0 -0 -0 nan nan nan nan -3 -3 -4 nan nan nan nan nan nan nan nan nan nan nan nan -12 -9 -9 -16 nan nan nan nan nan nan nan -11 -7 -7 -7 -9 nan nan nan nan nan nan nan nan nan nan nan nan nan nan nan nan nan nan nan nan nan nan nan nan nan nan nan nan nan nan nan nan nan nan nan nan nan nan nan -14 nan nan nan
-0 -0 -0 -0 -0 -0 -0 -0 -1 -1 -2 -2 nan nan -6 -6 nan nan nan nan nan nan nan nan nan nan nan nan nan nan nan nan nan nan nan nan nan nan nan -8 -8 -8 nan nan nan nan nan nan nan nan nan nan nan nan nan nan nan -0 -0 nan nan nan nan nan nan nan nan nan nan nan nan nan nan nan nan nan nan nan nan nan nan nan -16 nan nan nan
-0 -0 -0 -1 -1 -1 -1 -2 -1 -1 -4 -7 -7 -7 -7 -7 nan nan nan nan nan nan nan nan nan nan nan nan nan nan nan nan nan nan nan nan nan nan nan nan nan nan -12 nan nan -11 -9 -7 -7 nan nan nan nan nan nan nan nan -2 -0 nan nan nan -6 nan nan nan nan nan nan nan -10 nan nan nan nan nan nan nan nan nan nan -14 -7 nan nan nan
-0 -0 -0 -2 -2 -2 -1 -2 -2 -2 -4 -6 -7 -7 nan nan nan nan -4 -6 -6 -7 nan nan nan nan nan nan nan nan nan nan nan nan nan nan nan nan nan nan nan -17 -12 nan nan -7 -8 -4 -4 nan nan nan nan nan nan nan nan nan nan nan nan nan nan nan nan nan nan nan nan nan nan nan nan nan nan nan nan nan nan -13 -13 -0 -0 nan nan nan
-0 -2 -4 -8 -8 -8 -6 -4 -5 -5 -5 -5 -5 -5 nan nan -7 -7 -5 nan nan -7 nan nan nan nan nan nan nan nan nan nan nan nan nan nan nan nan nan nan nan nan nan nan nan nan -9 -5 -5 -10 nan nan nan nan nan nan nan nan nan nan nan nan nan nan nan nan nan nan nan nan nan nan nan nan nan nan nan nan nan nan nan nan -9 nan nan nan
-5 -4 -6 -5 -5 -5 -5 -5 -6 -6 -7 -5 -7 -7 nan nan -5 -5 -8 nan nan nan nan -10 -10 -9 nan nan nan nan nan nan nan nan nan nan -12 -12 -34 nan nan nan nan nan nan nan nan nan nan nan nan nan nan nan nan nan nan nan nan nan nan nan nan nan nan nan nan nan nan nan nan nan nan nan nan nan nan nan nan nan nan nan nan nan nan nan
-4 -5 -5 -6 -6 -7 -4 -6 -6 -6 -6 -6 nan nan nan nan nan nan -6 nan nan nan nan -11 -11 nan nan -5 -7 -7 nan nan nan nan nan nan nan nan nan nan nan nan nan nan nan nan nan nan nan nan nan nan nan nan nan nan nan nan nan nan nan nan nan nan nan nan nan nan nan nan nan nan nan nan nan nan nan nan nan nan nan nan nan nan nan nan
nan -7 -7 -8 -8 -7 nan nan -6 -6 -5 -4 nan nan nan nan nan nan nan nan nan nan nan nan nan nan nan nan nan nan nan nan nan nan nan nan nan nan nan nan nan -25 nan nan nan nan nan nan nan nan nan nan nan nan nan nan nan nan nan nan nan nan nan nan nan nan nan nan nan nan nan nan nan nan nan nan nan nan nan nan nan nan nan nan nan nan
-4 -5 nan -6 -6 nan nan nan nan nan nan nan nan nan nan nan nan nan nan nan nan nan -5 nan nan nan nan nan nan nan nan nan nan nan nan nan nan nan nan nan nan -22 -20 -18 -18 -14 -20 nan nan nan nan nan nan nan nan nan nan nan nan nan nan nan nan nan nan nan nan nan nan nan nan nan nan nan nan nan nan nan nan nan nan nan nan nan nan nan
-5 nan nan nan nan nan nan nan nan nan nan nan nan nan nan -4 -0 -0 nan nan nan nan nan nan nan nan nan nan nan nan -4 -5 nan nan nan nan nan nan nan -21 -21 -22 -22 -21 -21 -20 -17 -22 -22 nan nan nan nan nan nan nan nan nan nan nan nan nan nan nan nan nan nan nan nan nan nan nan nan nan nan nan nan nan nan nan nan nan nan nan nan nan
-3 nan nan nan nan nan nan nan nan nan nan nan nan nan nan nan nan nan nan nan nan nan nan nan nan nan nan nan nan nan nan nan nan nan nan nan nan nan -18 -21 -21 -17 -18 -21 -21 -21 nan -23 -23 -17 -6 -6 nan nan nan nan nan nan nan nan nan nan nan nan nan nan nan nan nan nan nan nan nan nan nan nan nan nan nan nan nan nan nan nan nan nan
-1 nan nan nan nan nan nan nan nan nan nan nan nan nan nan nan nan nan nan nan nan nan nan nan nan nan nan nan nan nan nan nan nan nan nan nan nan nan -17 -17 -17 -13 -11 nan nan nan nan nan nan nan -8 -0 -7 -7 nan nan nan nan nan nan nan nan nan nan nan nan nan nan nan nan nan nan nan nan nan nan nan nan nan nan nan nan nan nan nan nan
Wind_Speed
2 2 2 2 2 2 2 3 4 4 4 4 4 4 5 5 5 5 6 7 7 7 7 7 7 8 9 11 13 15 15 15 15 16 16 17 18 18 19 19 19 19 19 18 18 17 17 17 17 17 18 18 18 18 19 19 19 19 20 20 20 20 20 20 20 20 20 19 19 19 18 18 18 18 18 17 17 18 18 18 19 19 20 21 21 21
3 3 3 3 3 3 3 4 5 5 6 5 5 6 6 7 6 6 6 7 7 7 7 8 8 9 9 11 13 15 16 16 16 17 17 18 19 19 20 20 20 19 19 18 18 17 17 17 17 18 18 18 19 19 19 19 19 19 19 20 20 20 20 20 20 20 20 20 20 19 19 19 18 18 18 17 17 17 18 18 18 18 19 20 20 20
4 4 4 4 4 4 4 5 5 6 6 6 6 7 8 8 7 6 6 6 7 7 7 7 8 9 10 10 12 15 16 17 17 18 18 19 19 20 20 20 20 19 19 18 18 17 17 18 18 19 19 19 19 20 20 20 20 19 19 19 19 19 20 20 20 20 20 20 20 20 19 19 19 19 18 18 17 17 17 17 17 17 18 18 18 18
4 4 4 4 4 4 4 5 5 6 5 6 6 7 7 6 6 6 6 7 7 7 7 7 8 8 8 8 10 13 16 17 18 18 19 19 20 20 20 19 19 19 18 18 18 18 18 18 19 19 19 20 20 20 20 20 20 20 20 19 19 19 19 19 19 19 20 20 20 20 19 19 19 19 19 19 18 18 18 17 17 17 17 17 17 17
3 4 4 4 4 4 4 5 5 5 5 5 6 6 6 5 5 5 6 6 7 7 6 7 7 8 7 7 9 12 16 17 18 19 19 19 19 19 19 19 18 18 18 18 18 18 18 19 19 20 20 20 20 20 20 20 20 20 20 20 19 19 19 19 19 19 19 19 19 19 19 19 19 19 19 19 19 19 19 18 18 18 17 17 17 17
3 3 4 3 3 4 4 4 5 4 4 4 4 4 4 4 4 5 5 6 6 6 6 6 6 7 7 8 10 12 15 17 18 18 19 19 19 19 18 18 18 18 18 18 18 18 19 19 19 20 20 20 20 20 20 20 20 20 20 19 19 19 19 18 18 18 18 18 18 18 18 19 19 19 19 19 19 19 19 19 19 19 19 18 18 18
3 3 3 3 3 3 3 4 4 4 4 4 4 4 4 4 4 4 4 5 5 5 5 5 6 6 7 8 10 12 13 15 16 17 17 18 18 17 17 17 17 18 18 18 18 19 19 19 19 20 20 20 20 20 20 20 19 19 19 19 19 18 18 18 17 17 17 17 17 18 18 18 18 18 18 18 18 19 19 20 20 20 20 20 20 20
4 4 3 3 3 3 3 3 4 4 4 4 4 4 4 4 4 4 4 4 4 4 5 5 6 6 6 7 9 10 10 11 11 12 13 14 15 15 16 16 17 17 18 18 19 19 19 19 19 19 19 19 19 19 19 19 19 19 19 18 18 18 17 17 17 17 17 17 17 17 17 17 17 17 17 17 18 18 19 19 20 20 20 20 20 21
5 5 4 4 4 4 4 3 3 3 3 4 4 4 5 5 5 4 4 4 3 3 4 5 6 6 6 7 7 8 9 9 9 9 10 10 10 11 13 14 16 17 17 18 18 19 19 19 19 19 19 19 19 19 19 19 18 18 18 17 17 17 17 16 16 16 17 17 17 17 17 17 17 17 17 18 18 18 18 19 19 20 20 20 21 21
5 5 5 4 3 3 4 4 4 3 3 3 4 4 4 5 5 5 5 4 4 4 4 6 7 7 7 6 7 8 9 10 11 12 12 11 11 12 13 13 13 14 17 17 18 19 19 19 19 19 19 19 19 18 18 18 17 17 17 16 16 16 16 16 16 16 17 17 17 17 18 18 18 18 18 18 18 18 19 19 19 20 20 20 21 21
4 4 4 4 3 3 3 4 3 3 3 4 3 3 3 4 4 5 6 6 6 5 5 5 6 7 7 7 7 8 8 8 9 10 11 12 12 13 13 13 13 14 16 16 17 18 18 19 19 19 18 18 18 18 17 17 16 16 16 16 16 16 16 16 16 17 17 17 18 18 18 18 18 18 19 19 19 19 19 19 19 20 20 20 21 21
4 4 3 3 3 3 3 3 3 3 3 3 4 3 3 3 4 4 6 7 7 7 6 6 6 6 7 7 8 8 7 7 7 7 7 7 8 9 10 10 10 12 13 14 14 16 17 18 18 18 17 17 17 17 16 16 15 15 15 15 15 16 16 17 17 17 18 18 18 19 19 19 19 19 19 19 19 19 19 19 19 19 20 20 21 21
3 3 3 3 3 3 3 3 3 3 3 3 4 4 4 4 4 4 5 6 7 7 7 7 7 7 7 7 6 6 7 7 7 6 6 5 5 6 6 6 7 7 8 8 9 10 13 15 16 16 16 16 16 16 16 15 15 15 15 16 16 17 17 17 18 18 19 19 19 19 19 19 19 20 20 19 19 19 19 19 19 20 20 20 20 21
3 3 3 3 4 4 3 4 4 4 4 4 4 4 4 4 4 5 5 6 7 7 7 8 7 7 6 6 6 5 6 6 6 6 6 5 5 5 5 6 6 6 6 6 6 7 10 11 11 11 13 13 14 14 14 14 15 16 16 17 17 18 18 18 19 19 19 19 20 20 20 20 20 20 20 20 20 20 20 20 20 20 20 20 20 21
4 4 4 4 4 4 4 4 4 4 4 4 4 4 4 4 5 5 6 7 7 7 7 7 7 7 5 4 4 4 5 5 5 6 7 6 5 5 6 6 6 6 6 6 6 7 9 8 7 7 8 10 11 12 13 14 16 17 18 18 19 19 19 19 19 19 19 20 20 20 20 20 20 20 20 20 20 20 20 20 20 20 20 20 21 21
3 4 4 5 4 4 4 4 4 4 4 4 4 5 5 5 5 6 6 7 7 7 7 7 7 6 4 4 3 4 4 5 6 7 8 7 6 5 6 6 7 7 6 6 6 6 6 6 6 6 7 9 12 14 16 16 17 19 19 19 19 19 20 20 20 20 20 20 20 20 20 21 21 21 21 21 20 20 20 20 20 20 20 21 21 21
3 4 4 5 5 5 4 4 4 4 4 4 4 4 5 5 5 6 6 7 6 6 5 5 6 5 4 4 3 3 4 5 6 7 8 8 7 6 6 6 7 7 6 6 6 6 6 6 6 6 6 10 14 16 17 18 19 19 19 20 20 20 20 20 20 20 21 21 21 21 21 21 21 21 21 21 21 21 21 21 21 21 21 21 21 21
4 4 4 5 5 4 4 4 4 4 4 4 4 5 5 5 5 6 6 6 6 6 5 5 5 5 5 5 4 4 5 6 7 7 8 8 7 6 5 5 6 6 7 7 6 6 6 5 6 6 8 13 16 17 18 19 19 20 20 20 20 20 21 21 21 21 21 21 21 21 21 21 21 21 21 21 21 21 21 21 21 21 21 21 21 21
4 4 4 4 4 4 4 4 4 4 4 4 5 5 5 5 6 6 6 6 6 6 6 5 5 5 5 6 6 5 6 6 7 8 8 8 7 6 5 5 6 7 6 6 6 6 6 5 7 10 13 16 18 18 19 19 20 20 21 21 21 21 21 22 22 22 22 22 22 22 22 21 21 21 21 21 21 21 21 21 21 21 21 21 21 21
5 5 4 4 5 5 5 4 4 5 5 5 5 6 6 6 6 6 6 6 6 5 5 6 6 6 6 7 7 7 7 7 7 7 8 8 7 6 5 5 6 7 7 6 6 6 6 6 7 9 13 15 17 18 19 20 20 21 21 22 22 22 22 22 22 22 22 22 22 22 22 22 22 22 22 22 22 21 21 21 21 21 21 21 21 21
5 5 4 4 4 4 4 4 5 6 6 6 6 6 6 5 6 6 5 5 6 6 6 6 6 6 6 7 7 8 7 8 7 7 6 6 6 5 4 5 6 7 7 7 6 6 6 6 6 7 10 14 17 19 20 20 21 22 22 22 22 23 23 23 23 22 22 22 22 22 22 22 22 22 22 22 22 22 22 22 22 22 22 21 21 21
5 5 5 5 5 5 5 5 6 7 8 7 6 5 5 5 6 6 6 6 6 7 7 7 7 7 7 8 8 8 8 7 7 7 5 6 6 6 4 5 5 6 7 7 6 6 6 7 7 8 11 15 18 19 20 21 22 22 22 23 23 23 23 23 23 22 22 22 22 22 22 22 22 22 22 22 22 22 22 22 22 22 22 22 22 22
5 5 6 6 6 5 6 6 6 6 7 6 6 6 5 5 6 6 6 6 7 7 7 7 7 7 7 8 8 8 7 7 6 5 5 6 7 6 5 5 6 6 7 7 7 7 7 7 7 8 11 16 18 20 21 21 22 22 22 23 23 23 22 22 22 22 22 22 22 22 22 22 22 22 22 22 22 22 22 22 22 23 23 23 23 23
5 5 6 5 5 5 5 5 5 5 5 6 6 5 5 5 6 6 6 7 7 7 7 7 8 8 7 8 7 7 6 5 5 4 4 6 6 6 5 5 6 7 8 7 7 7 7 7 7 8 9 14 17 19 21 21 22 22 22 22 22 22 22 22 22 22 22 22 22 23 23 23 23 23 23 23 23 23 23 23 23 23 23 24 24 24
5 5 6 6 7 7 7 7 8 8 7 6 6 5 5 6 7 7 7 7 7 7 7 7 8 7 6 6 6 5 5 5 4 4 4 5 6 6 6 6 6 7 8 7 7 7 8 8 8 8 8 11 15 18 20 21 21 21 21 21 21 21 21 22 22 22 23 23 23 23 23 23 23 23 23 23 23 23 23 23 23 24 24 24 24 24
8 8 9 10 12 13 14 14 14 14 13 10 7 6 6 6 6 6 6 6 6 6 7 7 7 7 6 5 5 5 4 4 4 4 4 5 5 6 5 5 6 7 8 7 7 8 8 9 9 8 8 9 12 15 18 19 20 20 20 20 21 21 22 22 23 23 23 24 24 24 24 24 24 24 24 24 24 23 23 24 24 24 24 24 24 24
12 13 15 15 16 16 17 17 17 17 16 14 11 8 6 5 5 5 6 5 5 6 6 7 7 7 6 5 5 5 5 5 5 4 5 5 5 6 5 5 5 7 8 8 7 8 9 9 9 8 8 8 9 11 15 17 18 19 20 21 21 22 23 23 24 24 24 24 24 24 24 24 24 24 24 24 24 24 24 24 24 24 24 23 21 19
13 14 14 15 15 15 15 15 15 15 14 14 13 11 7 5 5 6 6 5 5 5 6 6 7 7 6 5 5 5 6 5 5 5 5 5 5 5 5 5 6 7 8 8 7 8 9 9 8 8 7 7 7 8 11 15 17 18 19 21 22 23 23 24 24 24 24 24 24 24 24 24 24 24 24 24 24 24 24 24 24 23 22 18 14 11
11 12 12 13 13 13 13 13 13 12 12 12 11 10 7 5 5 5 6 5 5 5 6 6 6 6 6 6 6 6 6 5 5 4 4 5 5 5 5 6 6 7 7 7 7 7 7 6 6 5 6 7 7 7 8 11 13 15 17 19 21 22 22 23 23 23 23 23 23 23 23 23 23 23 23 23 23 23 24 24 23 21 16 13 11 10
8 9 9 10 10 10 10 9 9 9 10 11 10 9 7 5 5 5 5 5 5 5 6 6 6 6 6 6 6 5 5 4 4 4 5 5 5 5 5 6 6 6 6 6 6 6 5 5 4 4 5 7 7 7 7 8 9 10 11 14 16 18 20 21 22 22 23 23 23 23 23 23 23 23 23 23 23 23 23 24 22 17 11 10 9 9
6 6 6 7 7 6 6 6 6 7 8 8 8 7 6 5 4 4 5 5 5 5 6 6 6 6 6 5 5 5 4 3 4 5 5 4 4 5 6 6 6 6 5 5 6 6 7 5 4 4 5 6 7 7 8 8 8 8 8 10 11 13 17 19 20 21 21 22 22 22 23 23 23 23 23 23 23 23 23 24 21 16 10 9 9 9
6 6 5 5 5 5 4 4 4 4 5 5 5 5 5 4 4 4 4 4 5 5 5 6 6 6 6 6 5 5 4 4 5 6 6 5 4 4 5 5 6 6 5 5 5 6 7 6 5 5 5 6 7 7 8 8 8 8 8 9 9 11 14 16 17 17 17 19 20 21 22 22 22 23 23 23 23 23 23 23 21 17 11 9 9 10
6 5 5 5 5 5 4 4 4 4 4 4 4 4 4 4 4 5 4 4 4 5 5 6 6 7 7 7 6 6 5 5 6 7 8 6 4 4 4 5 6 6 6 5 6 6 6 7 7 7 7 7 6 7 7 8 8 8 8 8 8 9 12 13 13 13 13 15 16 17 19 20 21 21 22 22 22 22 22 23 21 18 14 10 9 9
6 6 6 5 5 5 4 4 4 4 4 4 4 4 4 4 4 5 5 4 4 5 5 6 6 7 7 7 7 7 6 6 7 8 8 6 5 4 5 6 6 7 6 6 6 6 6 7 8 8 7 7 6 6 7 8 8 8 7 7 7 8 9 9 10 10 11 11 11 12 13 14 16 18 19 20 20 21 21 21 21 20 19 14 11 10
6 6 6 5 5 5 5 5 5 5 5 5 5 5 5 5 5 5 5 5 5 5 5 6 6 6 7 7 7 7 7 7 7 8 9 7 5 5 5 6 6 6 7 6 6 6 6 8 9 9 8 8 7 6 6 6 7 7 6 7 7 7 8 8 8 9 10 10 10 10 10 10 11 12 14 16 18 19 20 21 22 22 22 19 16 13
5 5 5 5 5 5 5 5 5 5 5 5 5 5 5 5 5 5 5 5 5 6 6 6 6 6 7 7 8 8 8 8 8 9 9 7 6 5 5 6 6 7 7 7 7 7 7 8 9 10 10 9 8 7 6 6 6 6 7 7 7 8 8 8 8 8 9 10 10 10 9 9 9 10 11 15 18 20 21 22 22 22 22 22 21 18
5 5 5 5 5 5 5 5 5 5 5 5 5 5 5 5 5 5 5 5 6 6 7 8 8 8 9 8 8 9 9 8 9 9 10 9 7 6 6 6 7 7 7 8 8 8 8 9 9 9 9 9 8 7 7 6 6 7 7 7 7 8 8 8 8 8 9 10 10 10 10 10 10 10 11 15 17 18 19 20 21 21 21 21 21 21
5 5 5 5 5 5 5 5 5 5 5 5 6 6 6 6 7 7 7 6 7 7 8 7 8 9 11 12 12 11 11 11 11 12 12 10 8 8 7 7 8 8 8 8 8 8 8 9 9 10 9 8 9 9 9 8 8 8 8 8 8 8 8 8 8 8 9 10 11 11 11 11 10 10 10 12 12 11 12 12 14 15 17 18 19 20
5 6 6 6 6 6 6 6 6 6 6 6 6 6 7 7 8 8 7 7 7 8 8 8 8 8 10 11 12 13 13 12 12 12 12 11 9 8 8 8 8 8 8 8 8 8 8 9 9 9 9 9 10 10 9 9 9 9 10 9 9 8 8 8 8 8 8 9 10 11 11 10 10 10 10 9 9 8 9 9 10 11 12 11 12 15
6 6 6 6 6 6 6 6 6 6 6 7 7 7 7 7 7 7 7 7 7 7 8 8 8 8 8 9 10 11 12 10 10 10 10 9 8 8 8 9 9 9 8 8 8 8 9 9 10 10 10 10 10 10 10 9 9 10 11 10 8 7 8 8 8 8 8 9 10 10 10 10 10 9 10 9 9 9 9 8 8 9 9 8 8 9
6 6 6 6 6 6 6 7 7 7 7 7 7 7 6 6 6 6 6 6 7 7 7 7 7 7 8 8 9 9 10 9 10 10 8 9 9 10 9 9 9 9 8 8 8 8 9 9 10 11 11 11 11 12 12 11 12 12 13 11 10 10 10 10 10 9 9 9 9 10 10 11 11 10 10 10 10 9 9 9 9 9 9 8 7 7
7 6 6 6 6 6 6 7 7 7 7 7 7 6 6 6 6 6 6 6 6 6 6 6 6 7 8 8 8 8 8 9 9 9 10 10 10 10 10 9 9 8 8 9 9 9 9 10 10 11 11 11 11 11 12 12 12 12 12 11 12 12 12 11 9 8 8 9 9 9 11 11 10 10 10 10 10 9 10 10 11 12 11 9 8 8
6 6 6 6 6 6 7 7 7 7 7 6 6 6 6 6 6 6 7 7 7 7 7 7 7 8 8 8 8 7 7 7 8 9 9 9 9 10 10 10 10 9 8 8 9 9 10 10 10 10 10 10 11 12 13 13 12 12 11 11 11 11 8 8 7 6 7 9 9 9 10 10 10 10 10 10 10 10 10 11 12 13 13 11 10 9
6 6 6 6 6 6 6 6 6 6 6 7 7 7 7 6 7 7 7 7 7 8 7 7 7 7 8 9 9 8 7 7 7 8 8 9 9 9 9 10 10 10 9 9 9 9 9 10 10 10 10 10 11 11 12 12 12 12 11 11 11 11 10 9 9 9 10 10 9 9 10 10 10 10 10 10 10 10 9 10 10 10 11 10 10 10
6 6 6 6 6 6 6 6 6 6 6 7 7 7 7 7 7 7 7 7 7 7 7 7 7 7 7 8 8 8 8 7 6 6 7 9 10 11 10 9 9 9 9 9 9 9 9 9 9 9 9 9 10 12 12 13 13 13 13 12 12 12 12 12 11 11 11 10 10 10 10 10 10 10 11 10 10 10 9 9 10 10 10 10 10 10
6 6 6 6 6 6 7 7 7 7 7 7 7 7 7 7 7 7 7 8 8 7 7 7 7 7 8 8 8 8 8 8 7 6 6 6 7 7 8 8 8 8 8 9 9 9 9 10 10 10 10 10 11 12 12 12 13 13 13 13 12 12 12 11 11 11 11 11 11 11 10 10 10 10 11 11 11 10 10 10 10 10 10 10 10 10
6 6 6 6 6 6 6 6 7 7 7 7 7 7 7 7 7 7 7 7 7 7 7 7 7 7 9 9 9 9 9 9 9 8 7 7 7 7 7 8 8 9 8 9 9 10 10 10 10 10 10 11 12 12 13 12 12 12 13 12 12 11 11 11 10 10 10 11 11 10 9 9 10 11 12 11 11 11 10 10 10 10 10 10 10 10
6 6 6 6 6 6 7 7 7 7 7 8 8 7 7 7 8 8 7 7 7 7 7 7 7 8 9 9 9 9 10 10 10 9 8 7 7 7 7 7 8 8 8 9 10 11 11 11 11 11 11 11 12 13 13 13 12 12 12 12 12 12 12 12 11 10 10 11 12 11 9 9 10 11 12 12 11 11 11 10 10 10 10 10 10 11
6 6 6 6 6 7 7 7 7 7 8 8 8 8 7 8 9 9 8 7 7 7 7 8 8 8 9 9 9 9 10 10 10 9 9 8 7 7 7 7 7 7 8 8 9 9 10 11 12 12 12 12 12 13 14 13 13 12 12 11 11 11 12 12 11 11 10 11 12 11 10 10 10 11 11 12 12 13 12 12 11 11 10 10 10 11
6 6 6 6 7 7 7 7 7 8 8 8 8 8 8 7 7 7 7 7 7 7 7 8 8 9 9 9 9 9 10 9 9 9 9 8 7 7 7 7 7 8 8 7 7 7 8 8 9 11 13 14 14 14 14 13 13 12 11 11 11 11 11 11 11 11 10 11 11 11 11 10 10 10 10 11 13 14 13 12 12 11 10 10 10 11
7 7 6 6 7 7 7 7 8 8 8 9 9 8 8 8 7 7 7 7 7 7 7 8 8 8 9 9 10 10 10 9 9 9 9 8 7 7 7 7 7 8 8 7 7 7 6 6 7 8 9 13 15 15 13 12 12 11 11 11 10 9 10 10 10 10 11 11 11 11 11 10 10 10 9 10 12 13 13 12 12 11 10 9 10 11
Wind_Direction
312 314 317 318 315 310 311 320 322 321 319 323 324 324 323 321 318 317 319 319 318 317 316 314 313 312 311 312 312 312 313 313 312 312 312 312 313 314 315 315 316 316 316 316 316 317 318 320 321 321 322 322 321 320 319 318 317 316 315 314 313 312 310 309 309 308 308 308 308 308 309 310 310 310 309 308 306 304 302 299 296 293 291 289 288 288
317 316 315 319 319 317 314 325 326 326 324 324 324 323 322 321 321 321 322 321 321 320 318 315 314 313 313 313 313 313 313 313 312 312 312 312 312 312 313 313 314 314 314 314 314 315 316 317 318 318 319 319 318 318 317 317 316 315 315 313 313 312 310 310 309 308 308 308 309 310 311 311 311 310 309 308 307 306 305 303 300 297 292 289 287 286
319 316 315 321 324 324 320 325 325 324 323 321 320 319 319 320 321 323 324 323 321 319 316 315 314 314 314 313 313 312 312 312 311 311 310 310 311 311 311 311 312 312 312 312 312 312 313 314 315 315 315 315 315 315 315 314 314 313 313 312 311 310 310 309 309 308 308 308 308 309 309 309 309 308 307 306 306 306 306 306 304 302 298 294 290 288
315 312 315 321 324 322 319 320 320 320 320 316 314 315 318 320 321 321 321 319 316 314 312 312 312 312 312 312 310 310 309 309 309 309 309 309 309 309 310 310 310 310 310 310 310 311 311 312 312 313 313 313 313 313 313 313 312 312 311 311 310 309 308 308 308 308 308 308 308 307 307 307 306 306 305 304 304 304 303 303 303 302 300 298 296 293
312 313 319 322 319 315 315 315 315 315 314 312 313 316 320 321 320 317 315 311 309 308 308 309 310 309 308 307 306 306 307 307 307 307 307 307 308 308 308 309 309 309 310 310 310 310 310 310 310 310 311 311 311 312 312 312 312 312 311 310 310 309 308 308 307 307 307 308 307 307 307 306 306 305 305 304 304 303 302 301 300 299 299 298 296 294
313 316 320 317 313 310 312 311 312 313 312 311 314 319 322 320 315 310 307 305 305 305 306 306 306 305 303 303 303 304 305 305 306 306 306 306 306 307 307 308 308 309 309 309 309 309 308 308 308 308 309 309 310 310 311 312 312 312 312 311 310 310 309 308 308 308 308 308 308 307 307 307 306 306 306 305 304 303 302 301 300 298 297 295 294 292
309 311 314 309 306 304 306 308 311 313 315 316 318 319 317 312 306 301 299 300 302 304 306 306 305 304 302 302 303 304 305 305 305 305 305 305 305 306 306 307 307 307 308 307 307 307 306 306 306 306 307 308 308 309 310 311 312 312 312 312 311 310 309 309 308 308 308 308 307 307 307 307 307 306 306 306 305 305 304 302 301 299 297 295 293 290
305 306 306 304 304 305 304 306 312 317 320 320 319 316 311 307 302 298 295 298 303 308 311 310 308 306 305 305 306 306 306 305 304 303 303 303 304 304 305 306 306 306 306 306 305 305 305 305 305 305 305 306 307 308 309 310 311 311 311 311 311 311 310 309 309 308 308 307 307 306 306 306 306 307 307 307 306 306 305 304 302 300 298 296 294 291
303 304 304 305 307 308 307 308 314 321 323 320 316 312 309 307 305 305 306 310 315 318 318 314 312 309 308 308 308 307 305 303 302 301 300 300 302 303 304 305 305 305 305 305 305 305 304 304 304 305 305 305 306 307 308 309 309 310 310 310 310 310 310 310 309 308 307 307 306 306 305 306 306 306 307 307 307 306 306 305 303 302 300 298 296 293
302 303 305 306 307 308 308 309 313 318 319 314 309 305 304 307 312 316 319 320 321 321 318 315 313 311 310 310 309 306 304 302 300 299 300 302 303 304 305 305 305 305 304 305 305 305 305 305 305 305 305 305 305 306 306 307 308 308 308 308 308 309 309 309 308 308 307 306 305 305 305 305 305 305 305 306 306 306 305 305 304 302 301 299 297 295
305 304 303 304 305 305 304 306 310 313 313 307 303 301 301 312 320 323 322 320 319 318 316 315 314 313 312 311 309 306 304 301 300 300 301 304 305 306 306 305 305 305 305 305 306 306 306 305 305 305 305 305 305 305 305 305 305 306 306 306 306 307 307 308 307 307 306 306 305 304 304 304 304 304 304 304 304 304 303 303 302 301 300 299 297 296
303 302 299 302 304 306 305 305 305 308 310 309 309 311 316 327 330 326 321 318 317 318 317 315 313 311 309 307 306 304 302 301 301 303 305 306 307 307 306 306 305 305 306 306 306 305 305 304 304 304 304 304 304 303 304 304 304 304 304 305 305 305 306 306 306 306 306 305 304 303 303 302 302 302 301 301 301 301 300 300 299 298 297 296 295 294
297 299 302 306 308 309 308 309 310 311 314 316 319 321 323 330 330 326 318 315 316 317 317 314 310 306 302 300 299 299 300 300 302 304 306 306 306 307 306 306 305 305 305 304 303 302 302 302 302 302 302 302 302 302 303 303 304 304 304 304 304 304 304 305 305 304 304 303 303 302 302 301 301 300 299 299 299 298 298 297 296 295 294 293 292 291
303 308 311 311 310 309 308 309 311 313 316 320 322 323 323 326 328 325 319 315 315 315 313 308 304 301 298 294 292 293 298 301 303 304 304 304 306 308 307 305 304 303 302 300 298 297 298 300 300 300 300 300 301 302 303 304 305 305 305 305 304 304 303 303 303 303 302 302 301 301 301 300 300 299 298 298 297 296 296 295 294 293 292 291 289 288
312 314 312 308 306 304 305 307 310 312 316 320 322 323 324 327 328 327 322 316 314 312 307 301 298 296 294 292 292 295 299 303 306 306 306 305 307 309 308 305 303 301 300 297 296 295 296 297 296 295 296 298 300 303 305 306 306 306 305 305 304 303 303 302 302 302 301 301 301 300 300 299 299 298 298 297 296 296 295 294 293 292 291 290 288 287
313 312 306 302 300 300 303 308 311 314 316 320 324 327 328 329 329 327 320 313 310 307 303 302 301 300 295 292 294 299 306 310 311 310 308 306 307 309 308 305 302 300 298 296 295 295 296 294 293 294 295 300 303 305 306 306 306 305 305 305 304 304 304 303 303 302 301 301 300 299 299 298 298 297 297 296 295 295 294 293 292 291 290 289 288 287
306 302 297 296 296 299 304 309 313 315 319 322 328 332 333 329 325 320 312 306 303 301 300 303 305 306 303 301 301 308 320 319 315 311 307 305 305 307 305 301 299 298 297 295 295 296 297 297 297 299 300 304 306 307 307 307 306 306 306 306 306 305 305 304 303 303 302 301 300 299 298 297 297 296 295 295 294 293 292 291 290 289 288 288 287 286
295 292 292 293 296 301 307 312 316 320 323 326 329 330 328 321 314 308 301 298 297 297 299 301 301 302 303 303 308 318 330 323 317 310 306 302 301 302 300 296 295 295 295 295 295 297 299 301 304 306 306 307 308 308 307 307 307 307 307 307 307 307 306 305 304 303 302 300 299 298 297 297 296 295 294 294 293 292 291 290 289 288 287 286 286 285
293 293 294 297 301 306 311 314 319 324 327 327 327 323 315 309 303 298 294 292 293 295 298 299 297 295 296 296 304 316 328 322 315 308 302 299 298 299 299 295 294 293 294 295 297 300 302 304 306 307 307 307 307 307 307 307 307 307 307 307 306 306 305 304 303 302 301 300 299 298 297 296 295 295 294 293 292 291 290 289 287 286 285 285 284 283
292 293 296 303 307 311 312 316 321 324 323 322 317 311 304 301 297 293 290 291 293 295 297 295 293 293 294 296 303 312 322 317 310 302 296 294 295 298 300 297 296 296 296 297 300 304 306 306 306 306 306 306 306 306 306 306 306 306 305 305 304 304 303 302 301 301 300 299 298 297 297 296 296 295 294 293 292 290 289 288 287 286 285 284 283 283
291 294 301 311 315 314 310 312 314 314 313 312 308 302 296 294 291 289 290 293 295 295 294 291 290 292 296 298 302 308 314 309 303 296 292 293 294 297 300 298 299 299 299 300 303 305 306 305 305 304 304 304 304 305 305 305 304 304 303 303 302 302 301 300 300 299 298 298 298 297 297 297 296 295 294 293 292 291 290 289 288 287 286 285 284 284
293 297 304 311 311 307 302 302 303 304 305 305 301 295 292 292 292 292 295 296 294 293 290 289 290 294 298 297 298 299 300 294 291 290 293 294 295 297 302 303 303 302 301 302 303 305 306 304 303 302 302 303 303 304 304 303 303 302 301 301 300 300 299 298 298 297 297 297 297 296 296 296 295 295 294 293 293 292 291 290 289 288 287 286 286 286
297 299 303 305 302 297 294 294 296 298 302 299 294 290 291 293 294 294 295 294 292 290 290 290 291 293 292 290 288 287 283 280 281 286 292 294 296 300 308 309 306 302 299 302 304 305 305 304 302 301 301 303 303 303 302 302 301 300 300 299 299 298 297 297 297 296 296 296 296 295 295 295 294 294 294 293 292 292 291 290 290 289 288 287 287 287
296 295 295 293 291 288 287 289 293 296 297 294 291 290 290 289 288 287 287 289 289 289 289 289 289 286 283 281 280 281 281 284 289 295 295 293 296 301 310 310 305 301 298 301 304 306 305 302 301 301 301 302 302 302 301 300 300 299 299 298 298 298 298 297 297 297 297 296 296 295 294 294 293 293 293 292 292 291 290 290 289 288 288 287 287 286
284 283 282 280 279 281 283 286 288 289 289 288 287 286 285 284 284 285 287 287 286 285 284 284 284 285 285 287 289 291 294 301 305 304 298 294 295 299 304 306 304 301 299 302 305 306 304 302 302 301 301 300 300 300 299 299 299 299 299 299 300 300 300 299 299 298 298 297 296 295 294 293 293 292 291 291 290 289 289 288 288 287 287 286 286 285
272 272 274 276 279 281 284 285 285 286 286 286 285 284 285 286 286 286 283 281 281 281 283 285 287 289 293 297 299 300 303 307 306 302 297 295 295 297 300 304 303 302 301 304 307 308 305 303 302 301 299 297 297 297 298 298 299 300 301 302 302 302 302 301 300 299 298 297 296 295 294 293 292 291 290 290 289 288 288 287 287 287 287 286 286 285
276 276 278 280 282 283 285 285 286 286 287 287 286 286 287 289 287 284 280 281 284 287 290 292 293 294 297 297 297 299 305 307 305 300 297 294 294 295 300 306 308 307 305 306 307 307 304 301 299 298 296 294 294 295 298 300 302 304 305 305 304 303 301 300 299 298 297 296 295 294 293 292 292 291 290 289 289 288 287 287 287 287 287 286 286 284
284 284 284 285 285 285 286 285 286 286 286 286 285 285 286 285 283 282 282 287 291 292 291 292 294 297 298 298 299 301 305 303 299 297 299 296 294 296 305 313 315 313 310 307 305 302 298 295 293 293 292 294 295 298 302 305 306 307 306 304 303 301 299 298 297 296 296 295 294 293 293 292 291 290 289 289 288 287 287 286 286 286 286 286 285 283
291 291 290 289 289 288 287 286 285 284 283 282 282 281 279 275 273 276 281 288 292 292 290 291 293 295 297 298 299 299 298 293 295 303 317 310 302 300 310 314 316 315 312 308 303 298 291 288 289 292 294 299 302 305 307 309 308 306 304 302 300 299 297 297 296 295 295 294 294 293 292 291 290 290 289 288 287 286 286 286 286 286 286 284 282 280
298 297 295 294 292 290 289 286 283 281 280 279 277 275 270 266 266 271 279 287 290 291 290 291 292 294 297 300 300 297 290 291 308 328 336 319 307 302 310 311 313 315 316 312 307 301 293 291 291 295 299 305 307 308 308 307 305 301 299 298 297 296 295 295 295 295 294 294 293 293 292 291 290 289 289 288 287 286 286 286 286 285 283 281 278 277
304 303 300 298 295 292 288 283 279 277 277 276 275 271 265 262 263 268 276 281 284 284 285 287 289 292 295 298 298 296 291 302 322 333 332 315 303 302 310 309 309 311 314 312 308 305 303 300 298 299 305 307 306 305 302 300 298 295 294 293 292 292 293 294 294 294 294 294 293 292 292 291 290 290 289 288 287 287 286 285 285 284 281 279 276 275
307 305 302 300 297 293 287 283 279 278 277 277 274 270 266 263 263 266 270 274 276 278 280 283 285 287 288 286 285 286 289 298 312 318 318 307 299 299 305 303 303 303 304 299 296 295 299 301 304 307 309 305 302 298 295 293 292 290 290 289 289 290 292 293 294 294 294 293 293 292 292 291 291 290 289 288 287 286 286 285 284 283 280 277 275 274
310 308 305 302 300 297 295 294 293 292 291 288 285 281 277 273 272 271 270 271 273 275 279 281 283 284 284 281 279 278 281 289 301 307 308 303 297 296 300 299 299 299 298 291 284 281 284 292 299 304 303 299 296 293 292 290 288 287 287 288 288 289 291 293 293 293 292 293 293 292 292 292 291 290 289 288 287 286 286 285 283 282 279 276 274 273
312 310 307 305 304 304 305 305 305 303 301 299 297 295 292 289 286 283 281 279 278 278 278 280 282 283 284 283 281 279 279 284 292 298 302 300 296 294 297 296 295 295 295 291 286 283 280 285 292 297 298 296 292 289 289 289 288 286 284 284 285 287 289 291 292 292 292 292 292 292 291 291 290 290 289 288 287 286 285 284 283 281 279 277 274 273
311 308 307 307 309 310 311 311 309 307 305 303 303 302 301 300 298 295 293 290 286 283 279 277 277 277 279 280 281 281 281 284 290 293 295 293 291 290 292 289 290 291 292 290 290 289 286 286 289 292 296 296 294 290 286 285 284 283 281 281 283 285 288 290 291 292 292 291 290 289 289 289 289 288 287 286 286 285 284 284 283 281 280 277 275 273
308 307 308 312 314 315 313 311 309 307 306 306 306 306 306 304 302 300 296 292 288 284 280 275 271 269 268 270 273 276 278 281 284 286 286 283 282 282 283 282 284 287 288 287 288 288 288 288 289 290 292 293 293 292 288 284 283 284 284 284 285 285 286 287 288 289 290 290 289 288 287 286 285 284 284 285 285 285 285 285 284 283 281 279 276 274
307 309 313 316 317 315 312 310 308 307 307 307 307 307 306 304 302 298 294 289 284 280 277 273 269 265 262 261 263 266 272 275 277 278 278 276 275 274 275 277 279 280 281 283 284 286 287 288 289 290 288 286 288 292 295 295 292 289 287 287 286 286 286 286 286 286 286 285 284 284 284 284 283 283 284 285 286 287 287 286 285 284 282 281 278 276
310 313 316 317 316 314 311 309 308 308 309 309 308 307 305 302 299 296 292 286 281 277 274 272 270 268 266 266 266 267 269 272 273 273 273 272 270 269 270 273 273 273 271 274 278 281 284 286 288 289 288 285 284 287 292 296 296 294 291 289 287 285 285 284 282 280 279 281 282 283 284 284 285 286 286 287 288 287 286 285 283 283 282 281 279 277
314 315 315 315 314 313 311 310 310 309 310 307 305 303 300 297 294 291 288 285 281 278 276 274 273 272 270 269 269 269 270 269 269 268 268 266 265 264 266 269 271 270 269 268 270 272 275 277 281 284 288 289 289 289 290 292 293 294 295 293 288 283 279 280 280 280 279 282 284 285 285 285 285 284 283 283 282 281 279 280 279 279 280 280 279 277
313 312 311 312 312 312 311 310 309 308 306 303 300 298 296 294 292 290 287 285 283 281 279 278 276 275 273 271 271 270 270 269 267 266 265 262 259 259 261 265 268 270 270 267 266 265 267 271 274 277 280 284 287 290 291 290 290 292 295 295 292 287 285 285 285 284 283 281 281 281 282 281 279 277 276 275 274 274 274 275 276 277 276 276 276 277
311 309 309 310 311 310 308 307 306 304 302 300 299 297 296 295 294 292 290 287 286 285 284 282 280 278 275 273 272 272 271 270 268 266 264 259 256 254 256 259 263 267 269 267 265 263 263 267 271 274 276 279 282 284 285 285 288 290 292 291 290 290 291 288 285 282 279 277 275 275 277 278 278 277 276 275 274 272 271 272 273 273 273 270 268 269
308 308 309 310 310 310 307 305 304 302 300 298 297 296 295 296 295 294 293 292 291 289 289 289 288 286 285 281 278 275 274 272 269 266 263 258 254 252 252 255 259 262 265 266 265 263 260 263 267 270 273 277 281 283 284 284 285 286 286 286 288 290 290 283 278 275 276 277 277 278 279 280 280 279 278 276 275 273 271 269 269 270 270 268 265 263
306 307 307 306 305 304 303 303 303 302 300 298 296 295 294 293 292 292 292 292 292 292 293 292 291 291 290 289 287 283 278 273 270 268 266 262 257 254 254 256 258 260 262 265 266 265 263 263 264 267 271 274 277 279 282 285 286 285 282 283 287 290 290 286 284 282 280 279 278 278 278 278 277 277 276 275 274 273 272 271 270 269 268 267 266 264
303 303 302 302 301 301 301 302 302 301 300 298 296 294 292 291 290 289 289 289 290 291 292 292 291 290 288 289 289 289 287 281 276 272 271 269 266 262 262 260 260 260 259 261 265 268 270 267 266 267 270 273 274 276 279 282 284 285 283 282 281 280 278 283 287 288 283 279 275 273 273 275 276 277 276 275 274 273 271 269 267 266 264 264 264 263
300 300 300 300 301 302 302 301 300 300 298 296 294 292 292 291 290 289 288 288 288 289 290 292 292 291 289 290 291 292 292 290 287 283 278 276 274 273 271 268 266 264 261 259 261 264 268 270 271 271 272 272 272 273 276 280 282 283 282 281 278 275 272 276 280 282 281 279 277 275 274 275 276 277 276 274 272 270 268 267 265 264 262 260 259 259
298 299 299 301 301 301 300 300 299 297 296 294 292 291 291 291 289 287 286 286 287 288 289 290 290 290 290 292 294 296 296 294 293 290 288 285 282 279 277 273 272 269 266 263 261 259 260 265 269 274 276 274 272 270 270 274 278 280 281 280 279 278 276 276 275 275 276 278 277 276 275 276 275 275 274 274 272 271 267 265 263 262 261 258 257 256
297 298 299 300 300 299 298 298 297 295 294 293 292 292 291 291 290 288 286 286 287 288 289 289 287 286 287 291 294 296 296 296 295 294 292 290 288 285 282 279 275 272 269 267 265 262 260 260 262 266 271 274 274 274 272 272 273 275 278 279 280 279 277 276 274 273 273 274 275 276 278 277 275 273 273 273 273 272 269 265 262 260 259 257 256 255
298 299 300 299 298 297 297 296 295 293 292 291 290 290 290 291 291 291 289 289 289 290 290 289 287 285 285 287 289 291 292 293 294 294 294 293 291 288 285 282 279 276 272 270 268 266 263 260 258 257 259 264 269 273 274 273 272 271 273 276 277 277 276 276 275 274 274 272 272 273 274 273 272 272 274 275 274 272 270 267 264 260 257 256 255 254
299 298 298 297 296 295 295 294 293 292 290 290 290 289 289 290 291 292 292 291 290 289 288 287 286 286 285 286 287 289 290 290 291 292 293 293 292 290 288 286 284 281 278 274 271 269 267 262 256 251 248 251 258 265 270 271 271 270 271 272 273 274 274 275 275 274 273 272 272 270 267 266 265 266 270 273 273 273 272 270 266 262 258 256 254 253
298 296 296 295 294 293 292 291 291 290 289 289 289 290 291 291 292 291 290 289 287 286 284 284 284 285 285 286 288 289 290 290 290 290 291 292 292 292 291 290 289 288 286 281 278 275 274 269 260 250 243 243 247 254 263 267 270 270 269 268 268 269 272 274 274 274 273 273 273 271 267 265 263 263 264 268 270 272 272 271 268 264 260 257 254 253
297 295 294 293 292 290 290 289 288 288 287 288 289 291 292 293 293 291 290 288 287 285 284 283 283 283 284 286 287 288 288 289 289 289 290 291 292 293 292 292 292 292 292 290 288 286 284 282 276 265 251 245 244 247 255 262 268 271 271 268 267 268 270 273 274 274 274 274 274 273 271 268 266 263 262 264 268 271 272 271 269 266 263 259 257 256